Weather History for Carson City, NV

Change the Weather History Date:

Friday, February 14, 2014

  Actual Average Record
Temperature  
Mean Temperature 55 °F -  
Max Temperature 66 °F 49 °F 66 °F (2014)
Min Temperature 44 °F 25 °F 21 °F (2013)
Degree Days  
Heating Degree Days 10    
Growing Degree Days 5 (Base 50)    
Moisture  
Dew Point 18 °F    
Average Humidity 26    
Maximum Humidity 71    
Minimum Humidity 11    
Precipitation  
Precipitation 0.00 in - - ()
Sea Level Pressure  
Sea Level Pressure 30.09 in    
Wind  
Wind Speed 5 mph (SSE)    
Max Wind Speed 13 mph    
Max Gust Speed 23 mph    
Visibility 10 miles    
Events      
Averages and records for this station are not official NWS values.
T = Trace of Precipitation, MM = Missing Value Source: NWS Daily Summary

Daily Weather History Graph

Daily Weather History Graph

Search for Another Location

Airport:

Trip Planner

Search our weather history database for the weather conditions in past years. The results will help you decide how hot, cold, wet, or windy it might be!

Date:

Astronomy

Feb. 14, 2014 Rise Set
Actual Time 6:51 AM PST 5:35 PM PST
Civil Twilight 6:24 AM PST 6:02 PM PST
Nautical Twilight 5:52 AM PST 6:33 PM PST
Astronomical Twilight 5:21 AM PST 7:04 PM PST
Moon 5:43 PM PST (2/14) 6:21 AM PST (2/14)
Length of Visible Light 11h 38m
Length of Day
10h 43m
Full, 100% of the Moon is Illuminated
Feb 14
Full
Feb 14
Full
Feb 22
Last Quarter
Mar 1
New
Mar 8
First Quarter

Hourly Weather History & Observations

Time (PST) Temp. Windchill Dew Point Humidity Pressure Visibility Wind Dir Wind Speed Gust Speed Precip Events Conditions
12:15 AM 53.6 °F - 37.4 °F 54% 30.14 in 10.0 mi SSE 5.8 mph - N/A   Clear
12:35 AM 51.8 °F - 35.6 °F 54% 30.13 in 10.0 mi SSE 5.8 mph - N/A   Clear
12:55 AM 53.6 °F - 35.6 °F 51% 30.13 in 10.0 mi WSW 6.9 mph - N/A   Clear
1:15 AM 48.2 °F - 37.4 °F 66% 30.13 in 10.0 mi Calm Calm - N/A   Clear
1:35 AM 44.6 °F - 35.6 °F 71% 30.12 in 10.0 mi North - - N/A   Clear
1:55 AM 46.4 °F - 35.6 °F 66% 30.11 in 10.0 mi Calm Calm - N/A   Clear
2:15 AM 44.6 °F 43.1 °F 35.6 °F 71% 30.11 in 10.0 mi NE 3.5 mph - N/A   Clear
2:35 AM 44.6 °F 42.2 °F 33.8 °F 66% 30.09 in 10.0 mi NNE 4.6 mph - N/A   Clear
2:55 AM 46.4 °F 44.3 °F 33.8 °F 62% 30.08 in 10.0 mi NE 4.6 mph - N/A   Clear
3:15 AM 46.4 °F 42.9 °F 32.0 °F 57% 30.08 in 10.0 mi NNE 6.9 mph - N/A   Clear
3:35 AM 48.2 °F - 32.0 °F 54% 30.08 in 10.0 mi NE 5.8 mph - N/A   Clear
3:55 AM 53.6 °F - 28.4 °F 38% 30.09 in 10.0 mi NNE 6.9 mph - N/A   Clear
4:15 AM 50.0 °F - 26.6 °F 40% 30.10 in 10.0 mi East 6.9 mph - N/A   Clear
4:35 AM 50.0 °F - 26.6 °F 40% 30.10 in 10.0 mi East 3.5 mph - N/A   Clear
4:55 AM 53.6 °F - 23.0 °F 30% 30.09 in 10.0 mi Calm Calm - N/A   Clear
5:15 AM 46.4 °F - 26.6 °F 46% 30.09 in 10.0 mi Calm Calm - N/A   Clear
5:35 AM 50.0 °F - 23.0 °F 35% 30.09 in 10.0 mi NNE 5.8 mph - N/A   Clear
5:55 AM 48.2 °F - 24.8 °F 40% 30.09 in 10.0 mi Calm Calm - N/A   Clear
6:15 AM 48.2 °F - 23.0 °F 37% 30.10 in 10.0 mi Calm Calm - N/A   Clear
6:35 AM 46.4 °F - 23.0 °F 40% 30.10 in 10.0 mi Calm Calm - N/A   Clear
6:55 AM 48.2 °F - 23.0 °F 37% 30.10 in 10.0 mi ENE 3.5 mph - N/A   Clear
7:15 AM 48.2 °F - 19.4 °F 32% 30.11 in 10.0 mi North 6.9 mph - N/A   Clear
7:35 AM 53.6 °F - 17.6 °F 24% 30.12 in 10.0 mi ENE 5.8 mph - N/A   Clear
7:55 AM 53.6 °F - 15.8 °F 22% 30.12 in 10.0 mi NNE 3.5 mph - N/A   Clear
8:15 AM 55.4 °F - 14.0 °F 20% 30.12 in 10.0 mi NW 4.6 mph - N/A   Clear
8:35 AM 57.2 °F - 19.4 °F 23% 30.13 in 10.0 mi NE 4.6 mph - N/A   Clear
8:55 AM 57.2 °F - 17.6 °F 21% 30.13 in 10.0 mi NE 4.6 mph - N/A   Clear
9:15 AM 57.2 °F - 17.6 °F 21% 30.13 in 10.0 mi ENE 4.6 mph - N/A   Clear
9:35 AM 59.0 °F - 14.0 °F 17% 30.14 in 10.0 mi ESE 11.5 mph 18.4 mph N/A   Clear
9:55 AM 60.8 °F - 10.4 °F 14% 30.14 in 10.0 mi SSW 11.5 mph 23.0 mph N/A   Clear
10:15 AM 62.6 °F - 10.4 °F 13% 30.13 in 10.0 mi SE 5.8 mph - N/A   Clear
10:35 AM 64.4 °F - 8.6 °F 11% 30.13 in 10.0 mi WSW 10.4 mph 20.7 mph N/A   Clear
10:55 AM 64.4 °F - 8.6 °F 11% 30.13 in 10.0 mi SSW 12.7 mph 19.6 mph N/A   Clear
11:15 AM 64.4 °F - 10.4 °F 12% 30.12 in 10.0 mi WSW 3.5 mph - N/A   Clear
11:35 AM 64.4 °F - 8.6 °F 11% 30.12 in 10.0 mi WSW 8.1 mph 20.7 mph N/A   Clear
11:55 AM 64.4 °F - 10.4 °F 12% 30.11 in 10.0 mi SW 5.8 mph 21.9 mph N/A   Clear
12:15 PM 64.4 °F - 12.2 °F 13% 30.11 in 10.0 mi South 8.1 mph - N/A   Clear
12:35 PM 64.4 °F - 14.0 °F 14% 30.11 in 10.0 mi SSW 8.1 mph 20.7 mph N/A   Clear
12:55 PM 64.4 °F - 15.8 °F 15% 30.11 in 10.0 mi WSW 5.8 mph - N/A   Clear
1:15 PM 66.2 °F - 15.8 °F 14% 30.10 in 10.0 mi SSW 10.4 mph 17.3 mph N/A   Clear
1:35 PM 66.2 °F - 15.8 °F 14% 30.10 in 10.0 mi SSW 5.8 mph 19.6 mph N/A   Clear
1:55 PM 64.4 °F - 17.6 °F 16% 30.11 in 10.0 mi WSW 9.2 mph - N/A   Clear
2:15 PM 66.2 °F - 15.8 °F 14% 30.10 in 10.0 mi South 10.4 mph - N/A   Clear
2:35 PM 64.4 °F - 15.8 °F 15% 30.10 in 10.0 mi SSE 8.1 mph - N/A   Clear
2:55 PM 64.4 °F - 15.8 °F 15% 30.09 in 10.0 mi South 12.7 mph 17.3 mph N/A   Clear
3:15 PM 64.4 °F - 17.6 °F 16% 30.08 in 10.0 mi South 10.4 mph 19.6 mph N/A   Clear
3:35 PM 64.4 °F - 17.6 °F 16% 30.08 in 10.0 mi SSW 5.8 mph 18.4 mph N/A   Clear
3:55 PM 62.6 °F - 17.6 °F 18% 30.08 in 10.0 mi South 6.9 mph - N/A   Clear
4:15 PM 62.6 °F - 17.6 °F 18% 30.07 in 10.0 mi South 4.6 mph - N/A   Clear
4:35 PM 62.6 °F - 15.8 °F 16% 30.06 in 10.0 mi South 11.5 mph 16.1 mph N/A   Clear
4:55 PM 62.6 °F - 15.8 °F 16% 30.06 in 10.0 mi South 6.9 mph - N/A   Clear
5:15 PM 62.6 °F - 14.0 °F 15% 30.06 in 10.0 mi South 3.5 mph - N/A   Clear
5:35 PM 59.0 °F - 14.0 °F 17% 30.06 in 10.0 mi South 4.6 mph - N/A   Clear
5:55 PM 59.0 °F - 14.0 °F 17% 30.06 in 10.0 mi SSE 4.6 mph - N/A   Clear
6:15 PM 59.0 °F - 14.0 °F 17% 30.06 in 10.0 mi SSE 6.9 mph - N/A   Clear
6:35 PM 59.0 °F - 12.2 °F 16% 30.07 in 10.0 mi South 6.9 mph - N/A   Clear
6:55 PM 59.0 °F - 8.6 °F 14% 30.07 in 10.0 mi South 4.6 mph 16.1 mph N/A   Clear
7:15 PM 59.0 °F - 8.6 °F 14% 30.07 in 10.0 mi South 9.2 mph - N/A   Clear
7:35 PM 59.0 °F - 8.6 °F 14% 30.07 in 10.0 mi SSW 3.5 mph - N/A   Clear
7:55 PM 57.2 °F - 8.6 °F 14% 30.07 in 10.0 mi SSW 3.5 mph - N/A   Clear
8:15 PM 57.2 °F - 8.6 °F 14% 30.07 in 10.0 mi South 5.8 mph - N/A   Clear
8:35 PM 57.2 °F - 8.6 °F 14% 30.07 in 10.0 mi SSE 4.6 mph - N/A   Clear
8:55 PM 57.2 °F - 8.6 °F 14% 30.07 in 10.0 mi South 6.9 mph - N/A   Clear
9:15 PM 55.4 °F - 8.6 °F 15% 30.07 in 10.0 mi Calm Calm - N/A   Clear
9:35 PM 50.0 °F - 10.4 °F 20% 30.07 in 10.0 mi SSE 5.8 mph - N/A   Clear
9:55 PM 55.4 °F - 8.6 °F 15% 30.07 in 10.0 mi SSW 3.5 mph - N/A   Clear
10:15 PM 53.6 °F - 10.4 °F 18% 30.07 in 10.0 mi East 3.5 mph - N/A   Clear
10:35 PM 53.6 °F - 8.6 °F 16% 30.07 in 10.0 mi SSE 6.9 mph - N/A   Clear
10:55 PM 55.4 °F - 8.6 °F 15% 30.06 in 10.0 mi SSE 8.1 mph - N/A   Clear
11:15 PM 55.4 °F - 8.6 °F 15% 30.06 in 10.0 mi South 4.6 mph 16.1 mph N/A   Clear
11:35 PM 57.2 °F - 6.8 °F 13% 30.06 in 10.0 mi South 5.8 mph - N/A   Clear
11:55 PM 57.2 °F - 6.8 °F 13% 30.06 in 10.0 mi SSE 9.2 mph 16.1 mph N/A   Clear